Regional Weather Roundup
Issued by NWS State College, PA

Home | Current Version | Previous Version | Graphics & Text | Print | Product List | Glossary On
Versions: 1 2 3 4 5 6 7 8 9 10 11 12 13 14 15 16 17 18 19 20 21 22 23 24 25 26 27 28 29 30 31 32 33 34 35 36 37 38 39 40 41 42 43 44 45 46 47 48 49 50
000
ASUS41 KCTP 110403
RWRCTP

REGIONAL WEATHER ROUNDUP
NATIONAL WEATHER SERVICE STATE COLLEGE PA
1100 PM EST WED FEB 10 2016

Note: "fair" indicates few or no clouds below 12,000 feet with no
significant weather and/or obstructions to visibility.

* = STATION THAT DOES NOT REPORT PRECIPITATION /E.G. RAIN...SNOW...ETC/
    THUNDER OR FOG.

PAZ002>004-007>009-013>016-020>023-029>032-110500-
WESTERN PENNSYLVANIA

CITY           SKY/WX    TMP DP  RH WIND       PRES   REMARKS
ERIE           LGT SNOW  18   9  68 NW17G25   29.88S WCI   3
MEADVILLE      LGT SNOW  16  11  80 W8        29.83S WCI   5
FRANKLIN*      CLOUDY    16  10  79 W7        29.84S VSB 1   WCI   6
NEW CASTLE     LGT SNOW  16  12  84 W20G25    29.90S FOG     WCI  -1
BEAVER COUNTY  NOT AVBL
BUTLER*        CLOUDY    16   9  73 W16G24    29.92R WCI   0
PITTSBURGH INT LGT SNOW  15   9  76 W7G20     29.91R BLWGSNOWWCI   5
PITTSBURGH     PTCLDY    16   8  71 W20       29.91R WCI  -1
INDIANA*       CLOUDY    16  12  86 W14       29.89R FOG     WCI   1
LATROBE        CLOUDY    16   9  73 SW15      29.93R WCI   1
WASHINGTON CO* PTCLDY    14   7  73 SW12      29.95R WCI   0
$$

PAZ004>006-010>012-017>019-024>028-033>037-041-042-045-046-049>053-110500-
CENTRAL PENNSYLVANIA

CITY           SKY/WX    TMP DP  RH WIND       PRES   REMARKS
BRADFORD       FLURRIES  10   4  76 W7        29.74R WCI  -1
DUBOIS         CLOUDY    11   6  81 NW6       29.78S WCI   1
CLEARFIELD     PTCLDY    14   6  70 W6        29.81R WCI   5
JOHNSTOWN      LGT SNOW  12   5  73 W22G32    29.77R WCI  -7
ALTOONA        CLOUDY    17   7  64 W17G25    29.83R WCI   1
STATE COLLEGE  CLOUDY    18   9  65 W13       29.82R WCI   5
WILLIAMSPORT   CLOUDY    22   8  55 NW14      29.83R WCI   9
SELINSGROVE    CLOUDY    23  11  60 W8        29.86R WCI  14
FT INDIANTOWN  MOCLDY    22  10  59 W10       29.84R WCI  12
CAPITAL CITY   CLEAR     22   8  55 W12       29.87R WCI  10
HARRISBURG     MOCLDY    24  12  60 W14G26    29.87R WCI  12
YORK           CLOUDY    20   9  62 W8        29.87R WCI  10
$$

PAZ038>040-043-044-047-048-054-055-060>062-067>071-110500-
EASTERN PENNSYLVANIA

CITY           SKY/WX    TMP DP  RH WIND       PRES   REMARKS
SCRANTON       LGT SNOW  21  18  88 W8        29.75R VSB 3/4 WCI  11
MOUNT POCONO   LGT SNOW  18  12  77 W15G22    29.66R WCI   4
ALLENTOWN      LGT SNOW  25  15  66 W10       29.81R FOG     WCI  15
QUAKERTOWN*    NOT AVBL
READING        CLOUDY    25  11  55 W13       29.83R WCI  14
LANCASTER      PTCLDY    21  10  62 W10       29.85S WCI  10
COATESVILLE    FLURRIES  23  14  68 W16       29.84R WCI  10
POTTSTOWN      CLOUDY    24  12  60 W8G18     29.84R
BLUE BELL        N/A     27  14  59 W12G18    29.82R
DOYLESTOWN     CLOUDY    24  13  62 W13G22    29.80R WCI  12
WILLOW GROVE   NOT AVBL
NORTH PHILA    CLOUDY    28  13  53 NW17G28   29.84R
PHILADELPHIA   CLOUDY    29  10  45 W20G31    29.85R
$$



USA.gov is the U.S. government's official web portal to all federal, state and local government web resources and services.